When you browse on this site, cookies collect data to enhance your experience and personalize the content and advertising you see.
Visit our Privacy Policy to learn more. By continuing to use the site, you agree to this use of cookies and data.
  • In Hungary
  • List of Countries
  • For 7 days
  • Water Temperature
  • Weather Map
  • News
  • Weather Widgets
  • user-avatar
    Login

    Hourly Weather Korovki

    Today, 28 January, Tuesday

    Time Temperature Precipitation Wind Pressure Humidity
    00:00 +1°C° 0.2 mm 1 mps 743 mmHg 98%
    01:00 0°C° 0.2 mm 1 mps 743 mmHg 98%
    02:00 -2°C° 0 mm 2 mps 743 mmHg 97%
    03:00 -2°C° 0 mm 2 mps 742 mmHg 97%
    04:00 -2°C° 0 mm 2 mps 742 mmHg 97%
    05:00 0°C° 0 mm 1 mps 742 mmHg 96%
    06:00 0°C° 0 mm 1 mps 742 mmHg 96%
    07:00 -1°C° 0 mm 1 mps 742 mmHg 96%
    08:00 -1°C° 0 mm 1 mps 742 mmHg 97%
    09:00 -2°C° 0 mm 2 mps 742 mmHg 94%
    10:00 -2°C° 0 mm 2 mps 742 mmHg 91%
    11:00 -1°C° 0 mm 2 mps 742 mmHg 89%
    12:00 -1°C° 0 mm 2 mps 742 mmHg 88%
    13:00 -1°C° 0 mm 2 mps 741 mmHg 87%
    14:00 -1°C° 0 mm 2 mps 741 mmHg 86%
    15:00 -1°C° 0 mm 2 mps 741 mmHg 87%
    16:00 -1°C° 0 mm 2 mps 741 mmHg 89%
    17:00 -1°C° 0 mm 2 mps 740 mmHg 91%
    18:00 -1°C° 0 mm 2 mps 740 mmHg 92%
    19:00 -1°C° 0 mm 2 mps 740 mmHg 93%
    20:00 -1°C° 0 mm 3 mps 741 mmHg 93%
    21:00 -1°C° 0 mm 3 mps 740 mmHg 94%
    22:00 -1°C° 0 mm 3 mps 740 mmHg 94%
    23:00 -1°C° 0 mm 3 mps 739 mmHg 95%

    Tomorrow, 29 January, Wednesday

    Time Temperature Precipitation Wind Pressure Humidity
    00:00 0°C° 0 mm 3 mps 739 mmHg 95%
    01:00 0°C° 0 mm 3 mps 739 mmHg 95%
    02:00 0°C° 0 mm 3 mps 739 mmHg 95%
    03:00 -1°C° 0 mm 4 mps 738 mmHg 94%
    04:00 -2°C° 0 mm 4 mps 738 mmHg 94%
    05:00 -2°C° 0 mm 4 mps 737 mmHg 93%
    06:00 -2°C° 0 mm 4 mps 737 mmHg 93%
    07:00 -2°C° 0 mm 4 mps 737 mmHg 93%
    08:00 -2°C° 0 mm 4 mps 738 mmHg 93%
    09:00 -2°C° 0 mm 4 mps 737 mmHg 94%
    10:00 -2°C° 0 mm 4 mps 737 mmHg 94%
    11:00 -1°C° 0 mm 5 mps 737 mmHg 95%
    12:00 -1°C° 0 mm 5 mps 737 mmHg 92%
    13:00 -1°C° 0 mm 5 mps 737 mmHg 89%
    14:00 0°C° 0 mm 5 mps 736 mmHg 87%
    15:00 0°C° 0 mm 5 mps 736 mmHg 89%
    16:00 -1°C° 0 mm 5 mps 735 mmHg 92%
    17:00 -1°C° 0 mm 5 mps 735 mmHg 94%
    18:00 0°C° 0.1 mm 5 mps 735 mmHg 94%
    19:00 0°C° 0.1 mm 5 mps 735 mmHg 94%
    20:00 0°C° 0.1 mm 4 mps 735 mmHg 94%
    21:00 0°C° 0.1 mm 5 mps 734 mmHg 94%
    22:00 0°C° 0.1 mm 5 mps 734 mmHg 94%
    23:00 0°C° 0.1 mm 5 mps 734 mmHg 94%

    Day after tomorrow, 30 January, Thursday

    Time Temperature Precipitation Wind Pressure Humidity
    00:00 0°C° 0.2 mm 5 mps 733 mmHg 95%
    01:00 0°C° 0.2 mm 4 mps 733 mmHg 95%
    02:00 -1°C° 0.2 mm 4 mps 733 mmHg 96%
    03:00 -1°C° 0.1 mm 4 mps 732 mmHg 96%
    04:00 -1°C° 0.1 mm 4 mps 732 mmHg 96%
    05:00 -1°C° 0.1 mm 4 mps 731 mmHg 97%
    06:00 -1°C° 0.3 mm 4 mps 731 mmHg 97%
    07:00 -1°C° 0.3 mm 4 mps 731 mmHg 97%
    08:00 0°C° 0.3 mm 4 mps 731 mmHg 97%
    09:00 0°C° 0.4 mm 4 mps 731 mmHg 97%
    10:00 0°C° 0.4 mm 4 mps 731 mmHg 97%
    11:00 0°C° 0.4 mm 4 mps 731 mmHg 97%
    12:00 +1°C° 0.6 mm 3 mps 731 mmHg 97%
    13:00 0°C° 0.6 mm 3 mps 731 mmHg 96%
    14:00 0°C° 0.6 mm 3 mps 731 mmHg 96%
    15:00 +1°C° 0.3 mm 2 mps 731 mmHg 95%
    16:00 -1°C° 0.3 mm 2 mps 732 mmHg 94%
    17:00 -1°C° 0.3 mm 2 mps 732 mmHg 93%
    18:00 +1°C° 0.2 mm 1 mps 732 mmHg 93%
    19:00 +1°C° 0.2 mm 1 mps 732 mmHg 94%
    20:00 +1°C° 0.2 mm 1 mps 733 mmHg 95%
    21:00 +1°C° 0.1 mm 1 mps 733 mmHg 95%
    22:00 0°C° 0.1 mm 1 mps 733 mmHg 95%
    23:00 0°C° 0.1 mm 1 mps 733 mmHg 96%

    31 January, Friday

    Time Temperature Precipitation Wind Pressure Humidity
    00:00 0°C° 0.1 mm 1 mps 733 mmHg 96%
    01:00 0°C° 0.1 mm 1 mps 733 mmHg 96%
    02:00 0°C° 0.1 mm 1 mps 734 mmHg 96%
    03:00 -2°C° 0.2 mm 2 mps 733 mmHg 96%
    04:00 -2°C° 0.2 mm 2 mps 733 mmHg 96%
    05:00 -2°C° 0.2 mm 2 mps 733 mmHg 96%
    06:00 -2°C° 0.3 mm 2 mps 733 mmHg 96%
    07:00 -2°C° 0.3 mm 2 mps 733 mmHg 96%
    08:00 -2°C° 0.3 mm 2 mps 733 mmHg 97%
    09:00 -1°C° 0.2 mm 2 mps 733 mmHg 96%
    10:00 -1°C° 0.2 mm 2 mps 733 mmHg 95%
    11:00 -1°C° 0.2 mm 2 mps 733 mmHg 94%
    12:00 +1°C° 0 mm 2 mps 733 mmHg 91%
    13:00 +2°C° 0 mm 1 mps 733 mmHg 88%
    14:00 +2°C° 0 mm 1 mps 733 mmHg 86%
    15:00 +2°C° 0 mm 1 mps 733 mmHg 87%
    16:00 +1°C° 0 mm 1 mps 733 mmHg 89%
    17:00 +1°C° 0 mm 1 mps 733 mmHg 91%
    18:00 0°C° 0 mm 1 mps 733 mmHg 92%
    19:00 0°C° 0 mm 1 mps 733 mmHg 94%
    20:00 0°C° 0 mm 1 mps 733 mmHg 95%
    21:00 0°C° 0 mm 1 mps 733 mmHg 96%
    22:00 0°C° 0 mm 1 mps 734 mmHg 96%
    23:00 0°C° 0 mm 1 mps 734 mmHg 97%

    1 February, Saturday

    Time Temperature Precipitation Wind Pressure Humidity
    00:00 0°C° 0 mm 1 mps 734 mmHg 97%
    01:00 0°C° 0 mm 1 mps 734 mmHg 97%
    02:00 0°C° 0 mm 1 mps 734 mmHg 98%
    03:00 0°C° 0.2 mm 1 mps 734 mmHg 98%
    04:00 +1°C° 0.2 mm 1 mps 734 mmHg 98%
    05:00 -1°C° 0.2 mm 2 mps 734 mmHg 98%
    06:00 -1°C° 0.3 mm 2 mps 734 mmHg 98%
    07:00 +1°C° 0.3 mm 2 mps 733 mmHg 98%
    08:00 +1°C° 0.3 mm 2 mps 733 mmHg 98%
    09:00 +1°C° 0.5 mm 2 mps 733 mmHg 98%
    10:00 +1°C° 0.5 mm 2 mps 733 mmHg 98%
    11:00 +1°C° 0.5 mm 3 mps 733 mmHg 99%
    12:00 +1°C° 0.5 mm 3 mps 733 mmHg 98%
    13:00 +1°C° 0.5 mm 3 mps 732 mmHg 98%
    14:00 +1°C° 0.5 mm 3 mps 732 mmHg 98%
    15:00 +1°C° 0.2 mm 3 mps 732 mmHg 98%
    16:00 +1°C° 0.2 mm 3 mps 732 mmHg 98%
    17:00 +1°C° 0.2 mm 3 mps 732 mmHg 97%
    18:00 +1°C° 0.1 mm 3 mps 732 mmHg 97%
    19:00 +1°C° 0.1 mm 3 mps 732 mmHg 97%
    20:00 +2°C° 0.1 mm 2 mps 733 mmHg 97%
    21:00 +2°C° 0.2 mm 2 mps 733 mmHg 97%
    22:00 +2°C° 0.2 mm 2 mps 733 mmHg 97%
    23:00 +2°C° 0.2 mm 2 mps 733 mmHg 97%

    2 February, Sunday

    Time Temperature Precipitation Wind Pressure Humidity
    00:00 +2°C° 0 mm 2 mps 733 mmHg 97%
    01:00 +1°C° 0 mm 2 mps 733 mmHg 97%
    02:00 +1°C° 0 mm 2 mps 733 mmHg 97%
    03:00 +1°C° 0 mm 2 mps 733 mmHg 97%
    04:00 +1°C° 0 mm 1 mps 733 mmHg 96%
    05:00 +1°C° 0 mm 1 mps 733 mmHg 96%
    06:00 -1°C° 0 mm 2 mps 733 mmHg 95%
    07:00 -1°C° 0 mm 2 mps 732 mmHg 95%
    08:00 -1°C° 0 mm 2 mps 732 mmHg 94%
    09:00 0°C° 0 mm 3 mps 732 mmHg 94%
    10:00 0°C° 0 mm 3 mps 731 mmHg 94%
    11:00 +1°C° 0 mm 3 mps 731 mmHg 94%
    12:00 +1°C° 0.4 mm 3 mps 731 mmHg 95%
    13:00 +1°C° 0.4 mm 3 mps 730 mmHg 96%
    14:00 +1°C° 0.4 mm 3 mps 730 mmHg 96%
    15:00 +1°C° 1.2 mm 3 mps 730 mmHg 97%
    16:00 +1°C° 1.2 mm 3 mps 730 mmHg 97%
    17:00 +1°C° 1.2 mm 3 mps 730 mmHg 98%
    18:00 +1°C° 1 mm 3 mps 730 mmHg 98%
    19:00 +1°C° 1 mm 3 mps 731 mmHg 98%
    20:00 +1°C° 1 mm 3 mps 731 mmHg 98%
    21:00 +1°C° 0.3 mm 3 mps 731 mmHg 98%
    22:00 +1°C° 0.3 mm 3 mps 732 mmHg 98%
    23:00 +1°C° 0.3 mm 3 mps 732 mmHg 97%
    Show more